[[{"header":{"parameterUnit":"m.s-1","parameterCategory":1,"la1":30.2991,"la2":30.254,"lo1":-89.0895,"lo2":-89.0444,"dy":0.0017,"dx":0.0017,"nx":28,"ny":28,"refTime":"2024-12-04T03:00:00:Z","depth":0,"parameterNumber":2,"parameterNumberName":"U-component_of_WINDS"},"data":[0,0,0,0,0,0,0,0,0,0,0,0,0,0,0,0,0,0,0,0,0,0,0,0,0,0,0,0,0,0,0,0,0,0,0,0,0,0,0,0,0,0,0,0,0,0,0,0,0,0,0,0,0,0,0,0,0,0,-4.2815,-4.2815,0,-4.2811,-4.2811,-4.281,-4.271,-4.2708,-4.2705,-4.2703,-4.2697,-4.27,-4.2702,0,0,0,0,0,0,0,0,0,0,0,0,0,-4.2736,-4.2738,-4.2815,-4.2815,-4.2815,-4.2811,-4.2811,-4.281,-4.2711,-4.2708,-4.2704,-4.2701,-4.2697,-4.2699,-4.2702,0,0,0,0,0,0,0,0,0,0,0,0,0,-4.2755,-4.2739,-4.2815,-4.2765,-4.276,-4.2811,-4.2811,-4.281,-4.2711,-4.2707,-4.2704,-4.27,-4.2696,-4.2699,-4.2703,-4.2801,0,0,-4.2713,-4.2714,0,0,0,0,0,0,0,0,-4.2754,-4.2758,-4.2772,-4.2768,-4.2763,-4.2757,-4.2781,-4.2807,-4.2712,-4.273,-4.2703,-4.2698,-4.272,-4.2722,-4.2729,-4.2801,-4.28,-4.2713,-4.2715,-4.2717,-4.2718,0,0,0,0,0,0,0,-4.2753,-4.2758,-4.2813,-4.2772,-4.2767,-4.2742,-4.274,-4.2785,-4.2747,-4.2728,-4.2721,-4.2722,-4.2717,-4.2726,-4.2728,-4.28,-4.2713,-4.2716,-4.2718,-4.272,-4.2951,-4.2954,0,0,0,0,0,0,-4.2759,-4.2757,-4.2813,-4.2813,-4.2749,-4.2747,-4.2745,-4.2763,-4.2746,-4.274,-4.2725,-4.2717,-4.2722,-4.2724,-4.2728,-4.2839,-4.2717,-4.272,-4.2722,-4.2947,-4.2951,-4.2956,0,0,0,0,0,0,-4.2758,-4.2765,-4.2813,-4.2783,-4.2788,-4.2752,-4.2773,-4.2765,-4.2773,-4.2744,-4.2736,-4.2741,-4.2719,-4.2723,-4.2783,-4.2838,-4.2721,-4.2724,-4.2942,-4.2948,-4.2954,-4.3065,0,0,0,0,0,0,-4.2756,-4.2765,-4.2802,-4.2785,-4.279,-4.2869,-4.2777,-4.2768,-4.278,-4.2769,-4.2757,-4.2751,-4.2717,-4.2779,-4.2786,-4.284,-4.2727,-4.2936,-4.2944,-4.2952,-4.3057,-4.3075,-4.309,0,0,0,0,0,-4.2753,-4.2834,-4.2804,-4.2812,-4.2835,-4.2873,-4.2875,-4.2834,-4.2785,-4.2821,-4.2802,-4.2751,-4.2832,-4.2786,-4.2794,-4.285,-4.2933,-4.2942,-4.2951,-4.3049,-4.3071,-4.309,0,0,0,0,0,0,-4.2857,-4.283,-4.2797,-4.2875,-4.2877,-4.2856,-4.29,-4.2859,-4.2874,-4.2864,-4.2812,-4.281,-4.2878,-4.287,-4.2819,-4.2943,-4.2873,-4.2885,-4.2945,-4.2966,-4.2982,-4.2981,-4.273,0,0,0,0,0,-4.289,-4.2923,-4.2897,-4.2968,-4.2971,-4.2936,-4.2951,-4.2919,-4.2919,-4.2919,-4.2904,-4.2906,-4.2931,-4.2948,-4.297,-4.3057,-4.3051,-4.3099,-4.3116,-4.313,-4.3139,-4.3182,-4.3202,-4.2986,-4.2986,-4.2986,0,0,-4.2956,-4.2945,-4.2969,-4.2989,-4.2986,-4.3021,-4.2937,-4.2978,-4.3002,-4.2925,-4.2979,-4.297,-4.2968,-4.3041,-4.3073,-4.3037,-4.3198,-4.3142,-4.3153,-4.3154,-4.3194,-4.3214,-4.3232,-4.2992,-4.2991,-4.299,0,0,-4.3093,-4.309,-4.3147,-4.3147,-4.3145,-4.3121,-4.3136,-4.3121,-4.3111,-4.3166,-4.3108,-4.3138,-4.3183,-4.3183,-4.319,-4.333,-4.3283,-4.3339,-4.3425,-4.3467,-4.3484,-4.3499,-4.3546,-4.3564,-4.3349,-4.3349,-4.3349,0,-4.3175,-4.3225,-4.3182,-4.3226,-4.3236,-4.3169,-4.3226,-4.3228,-4.3233,-4.3241,-4.3202,-4.3256,-4.3251,-4.3322,-4.3356,-4.3365,-4.3378,-4.3338,-4.3486,-4.35,-4.3513,-4.3557,-4.3575,-4.3356,-4.3355,-4.3354,-4.3354,0,-4.3325,-4.3361,-4.3408,-4.3414,-4.343,-4.3481,-4.3445,-4.3466,-4.3434,-4.3415,-4.3471,-4.3462,-4.348,-4.3496,-4.3465,-4.3563,-4.354,-4.3495,-4.3422,-4.3541,-4.3581,-4.3598,-4.3365,-4.3363,-4.3361,-4.3359,0,0,-4.3525,-4.3508,-4.3525,-4.3527,-4.3521,-4.3547,-4.3596,-4.3613,-4.3631,-4.3639,-4.3676,-4.3717,-4.3674,-4.3681,-4.365,-4.3689,-4.3797,-4.3637,-4.3636,-4.3664,-4.3902,-4.3933,-4.3954,-4.3768,-4.3771,-4.3773,-4.3901,0,-4.3655,-4.3734,-4.3698,-4.3781,-4.3813,-4.3751,-4.3792,-4.3793,-4.3777,-4.3801,-4.3784,-4.3812,-4.3755,-4.3759,-4.3794,-4.3776,-4.3843,-4.3767,-4.38,-4.3802,-4.3798,-4.3975,-4.4009,-4.4129,-4.3916,-4.3919,-4.3921,0,-4.3816,-4.383,-4.3916,-4.3904,-4.3916,-4.3954,-4.3967,-4.3992,-4.3991,-4.3977,-4.3986,-4.3947,-4.3992,-4.3925,-4.3986,-4.3935,-4.3947,-4.394,-4.3944,-4.3942,-4.3866,-4.3975,-4.4167,-4.4184,-4.3946,-4.3944,-4.3943,0,-4.3949,-4.3989,-4.4046,-4.405,-4.4037,-4.4065,-4.4061,-4.4057,-4.407,-4.4083,-4.409,-4.4109,-4.4118,-4.4132,-4.4098,-4.4053,-4.4164,-4.4093,-4.4151,-4.4152,-4.4174,-4.4172,-4.4367,-4.4189,-4.4189,-4.4188,-4.4188,0,-4.4095,-4.415,-4.4105,-4.4139,-4.4199,-4.4157,-4.4217,-4.4206,-4.4204,-4.4234,-4.4184,-4.4214,-4.4169,-4.4195,-4.417,-4.4223,-4.4229,-4.4217,-4.4209,-4.4219,-4.422,-4.4223,-4.4212,-4.4193,-4.4192,-4.4191,-4.419,0,-4.4251,-4.4224,-4.4281,-4.4265,-4.4263,-4.4307,-4.4293,-4.4324,-4.4306,-4.4346,-4.4353,-4.4324,-4.4351,-4.432,-4.4346,-4.4329,-4.44,-4.4382,-4.44,-4.4393,-4.4451,-4.4445,-4.4651,-4.4675,-4.4486,-4.4488,-4.4489,0,-4.4345,-4.4385,-4.4374,-4.4391,-4.4391,-4.4419,-4.4432,-4.4394,-4.441,-4.4413,-4.4443,-4.4467,-4.4483,-4.4531,-4.4512,-4.4531,-4.451,-4.4582,-4.4512,-4.4521,-4.4507,-4.4503,-4.4506,-4.4594,-4.4596,-4.4598,-4.46,0,-4.4512,-4.4497,-4.4518,-4.4534,-4.4552,-4.4563,-4.457,-4.4587,-4.4547,-4.4568,-4.4596,-4.4609,-4.4635,-4.4658,-4.4673,-4.4668,-4.4627,-4.4623,-4.4636,-4.4645,-4.4652,-4.4646,-4.4434,-4.4617,-4.4615,-4.4614,-4.4613,-4.4612,-4.4637,-4.4669,-4.4666,-4.4691,-4.4693,-4.4702,-4.4729,-4.4715,-4.4738,-4.4756,-4.4733,-4.4767,-4.4766,-4.478,-4.4781,-4.4807,-4.4776,-4.4797,-4.4801,-4.4806,-4.4813,-4.4652,-4.481,-4.4809,-4.4809,-4.4808,-4.4808,0,-4.4798,-4.4794,-4.4818,-4.4829,-4.4849,-4.4811,-4.4818,-4.4836,-4.4867,-4.487,-4.4887,-4.4919,-4.4942,-4.4926,-4.4945,-4.4969,-4.495,-4.4975,-4.497,-4.497,-4.4841,-4.4826,-4.4989,-4.4989,-4.4989,-4.4989,-4.4989,-4.4989,-4.4884,-4.4936,-4.4921,-4.4974,-4.4969,-4.5002,-4.5008,-4.5016,-4.5017,-4.5055,-4.5074,-4.5064,-4.5059,-4.5077,-4.5097,-4.5091,-4.5099,-4.513,-4.5118,-4.4997,-4.4979,-4.4962,-4.4947,-4.5133,-4.5133,-4.5243,-4.5244,-4.5245]},{"header":{"parameterUnit":"m.s-1","parameterCategory":1,"la1":30.2991,"la2":30.254,"lo1":-89.0895,"lo2":-89.0444,"dy":0.0017,"dx":0.0017,"nx":28,"ny":28,"refTime":"2024-12-04T03:00:00:Z","depth":0,"parameterNumber":3,"parameterNumberName":"V-component_of_WINDS"},"data":[0,0,0,0,0,0,0,0,0,0,0,0,0,0,0,0,0,0,0,0,0,0,0,0,0,0,0,0,0,0,0,0,0,0,0,0,0,0,0,0,0,0,0,0,0,0,0,0,0,0,0,0,0,0,0,0,0,0,1.9179,1.9178,0,1.9107,1.9106,1.9105,1.8989,1.8987,1.8985,1.8983,1.8909,1.8909,1.8909,0,0,0,0,0,0,0,0,0,0,0,0,0,1.9217,1.9217,1.9179,1.9178,1.9177,1.9107,1.9106,1.9105,1.8989,1.8987,1.8984,1.8982,1.8909,1.8909,1.8909,0,0,0,0,0,0,0,0,0,0,0,0,0,1.9179,1.9217,1.9179,1.9111,1.9104,1.9107,1.9106,1.9105,1.899,1.8987,1.8984,1.8981,1.8909,1.8909,1.8909,1.8973,0,0,1.8909,1.8909,0,0,0,0,0,0,0,0,1.9181,1.9177,1.9122,1.9116,1.9108,1.9054,1.9092,1.9061,1.8991,1.9033,1.8983,1.8979,1.896,1.8955,1.8949,1.8969,1.8966,1.8909,1.8909,1.8909,1.8909,0,0,0,0,0,0,0,1.9184,1.918,1.915,1.9121,1.9113,1.9084,1.9075,1.9086,1.9015,1.9029,1.9021,1.9014,1.8955,1.8949,1.8946,1.8965,1.8909,1.8909,1.8909,1.8909,1.9036,1.9039,0,0,0,0,0,0,1.9196,1.9183,1.9153,1.9148,1.9137,1.9086,1.9076,1.9074,1.9015,1.9003,1.9017,1.9009,1.895,1.8946,1.8943,1.9015,1.8909,1.8909,1.8909,1.9033,1.9037,1.904,0,0,0,0,0,0,1.9198,1.9195,1.9156,1.9163,1.9156,1.9089,1.9088,1.9075,1.9068,1.9005,1.8992,1.9023,1.8948,1.8943,1.8967,1.9011,1.8909,1.8909,1.9029,1.9034,1.9038,1.9159,0,0,0,0,0,0,1.9199,1.9196,1.9219,1.9165,1.9156,1.9181,1.9091,1.9076,1.9069,1.9058,1.9008,1.8997,1.8945,1.8967,1.8967,1.9009,1.8909,1.9024,1.9031,1.9037,1.9151,1.9168,1.9182,0,0,0,0,0,1.9201,1.9256,1.9221,1.9218,1.9184,1.9183,1.9179,1.9118,1.9073,1.9096,1.9056,1.8998,1.9006,1.8971,1.8969,1.9012,1.9021,1.9029,1.9036,1.9144,1.9165,1.9182,0,0,0,0,0,0,1.9317,1.9247,1.9208,1.9247,1.9222,1.9164,1.9191,1.9141,1.9129,1.9119,1.9044,1.9034,1.9068,1.9042,1.9004,1.9072,1.9005,1.9013,1.9087,1.9106,1.9122,1.9128,1.8909,0,0,0,0,0,1.9347,1.9353,1.9291,1.9331,1.9321,1.9259,1.9256,1.9212,1.9183,1.9172,1.9133,1.9108,1.9104,1.9104,1.9097,1.9147,1.9135,1.9176,1.9191,1.9204,1.9212,1.9238,1.9256,1.9065,1.9065,1.9065,0,0,1.941,1.9372,1.938,1.9354,1.9329,1.9337,1.9251,1.9262,1.9267,1.9173,1.9194,1.9165,1.9131,1.9169,1.9183,1.9148,1.9262,1.9214,1.9225,1.9225,1.9248,1.9266,1.9282,1.907,1.9069,1.9069,0,0,1.9527,1.9499,1.953,1.9508,1.9472,1.943,1.9438,1.9388,1.9365,1.9384,1.9315,1.932,1.9315,1.9295,1.9284,1.9396,1.9343,1.9396,1.9478,1.9504,1.9519,1.9532,1.9573,1.9589,1.9403,1.9404,1.9404,0,1.9609,1.9618,1.9552,1.9568,1.956,1.9476,1.9507,1.9489,1.9453,1.9449,1.941,1.9404,1.9376,1.9408,1.9436,1.9429,1.9436,1.9401,1.9522,1.9534,1.9545,1.9584,1.96,1.9411,1.941,1.9409,1.9408,0,1.9721,1.9728,1.9757,1.9726,1.972,1.9744,1.9683,1.9685,1.9642,1.9605,1.9626,1.9589,1.9574,1.9579,1.9536,1.9606,1.9585,1.9536,1.9467,1.9572,1.9607,1.9621,1.942,1.9418,1.9416,1.9414,0,0,1.9909,1.9842,1.9854,1.9839,1.9794,1.9799,1.9819,1.9805,1.9809,1.9788,1.9804,1.9803,1.9757,1.9745,1.97,1.9723,1.9816,1.967,1.9668,1.9699,1.9892,1.9931,1.9949,1.978,1.9783,1.9785,1.9895,0,2.0018,2.005,1.9992,2.0037,2.0044,1.9965,1.9983,1.9958,1.9925,1.9925,1.9888,1.9889,1.9828,1.982,1.9839,1.98,1.9854,1.9791,1.9795,1.9796,1.9807,1.9967,2.0007,2.0113,1.9908,1.9911,1.9912,0,2.0149,2.0136,2.0182,2.0136,2.0136,2.0154,2.0137,2.0139,2.0109,2.0083,2.0071,2.0018,2.0035,1.9969,1.9993,1.9953,1.9951,1.9932,1.9935,1.9934,1.9861,1.9971,2.0145,2.0162,1.9933,1.9931,1.993,0,2.0284,2.0276,2.0303,2.0293,2.024,2.0254,2.0233,2.02,2.0196,2.0181,2.0178,2.0166,2.016,2.0152,2.0097,2.0054,2.0129,2.0058,2.0108,2.011,2.0128,2.0128,2.0306,2.0126,2.0125,2.0125,2.0125,0,2.0412,2.0444,2.0363,2.038,2.0414,2.0348,2.0383,2.0353,2.0325,2.0336,2.0266,2.0278,2.0204,2.0208,2.0165,2.0193,2.019,2.017,2.0159,2.0177,2.018,2.0175,2.0167,2.0129,2.0128,2.0128,2.0127,0,2.0568,2.0515,2.054,2.0488,2.0475,2.0503,2.0458,2.0472,2.0434,2.0448,2.0448,2.0389,2.0389,2.0334,2.0323,2.0295,2.0341,2.0315,2.0351,2.0344,2.0398,2.0394,2.058,2.0602,2.0408,2.0409,2.0411,0,2.0654,2.0677,2.0627,2.063,2.0612,2.0616,2.0611,2.0547,2.0546,2.0515,2.0533,2.0528,2.0521,2.0526,2.0483,2.0475,2.0449,2.0515,2.0447,2.0466,2.0452,2.0451,2.0454,2.0529,2.0532,2.0534,2.0535,0,2.0813,2.0786,2.0782,2.077,2.0767,2.0754,2.0737,2.0743,2.0673,2.0675,2.0676,2.067,2.066,2.0657,2.0641,2.0619,2.0567,2.0557,2.0568,2.0588,2.0608,2.0599,2.0391,2.0553,2.0551,2.055,2.0549,2.0548,2.0936,2.0954,2.0922,2.0921,2.0902,2.0888,2.0899,2.0863,2.0862,2.0849,2.0811,2.0818,2.0789,2.0763,2.0746,2.0751,2.0718,2.0735,2.0739,2.0744,2.0755,2.0607,2.0748,2.0747,2.0747,2.0746,2.0746,0,2.1092,2.1069,2.1068,2.1047,2.1047,2.0997,2.0976,2.0979,2.0986,2.0964,2.0959,2.096,2.0957,2.0914,2.0906,2.0919,2.0894,2.0919,2.0918,2.0914,2.0784,2.0776,2.0939,2.0939,2.0938,2.0938,2.0938,2.0938,2.1174,2.1201,2.117,2.1188,2.1163,2.117,2.1162,2.115,2.1132,2.1136,2.1134,2.1106,2.1075,2.1065,2.106,2.1048,2.1049,2.1082,2.1061,2.0941,2.0923,2.0905,2.0896,2.1082,2.1082,2.119,2.1191,2.1192]}]]